Time,TemperatureF,DewpointF,PressureIn,WindDirection,WindDirectionDegrees,WindSpeedMPH,WindSpeedGustMPH,Humidity,HourlyPrecipIn,Conditions,Clouds,dailyrainin,SoftwareType,DateUTC
2013-04-14 00:00:00,51.1,51.1,29.32,NE,54,10.0,13.0,100,0.00,,,0.00,VWS V14.01,2013-04-14 05:00:00,
2013-04-14 00:05:00,51.1,51.1,29.31,ENE,66,6.0,11.0,100,0.00,,,0.00,VWS V14.01,2013-04-14 05:05:00,
2013-04-14 00:10:00,51.3,51.3,29.31,ENE,69,3.0,11.0,100,0.00,,,0.00,VWS V14.01,2013-04-14 05:10:00,
2013-04-14 00:15:00,51.6,51.6,29.31,ENE,65,5.0,11.0,100,0.00,,,0.00,VWS V14.01,2013-04-14 05:15:00,
2013-04-14 00:20:00,52.0,52.0,29.28,ENE,75,7.0,11.0,100,0.00,,,0.00,VWS V14.01,2013-04-14 05:20:00,
2013-04-14 00:25:00,51.9,51.9,29.28,ENE,65,6.0,13.0,100,0.00,,,0.00,VWS V14.01,2013-04-14 05:25:00,
2013-04-14 00:30:00,51.7,51.7,29.28,ENE,68,5.0,13.0,100,0.00,,,0.00,VWS V14.01,2013-04-14 05:30:00,
2013-04-14 00:35:00,51.4,51.4,29.27,ENE,66,2.0,9.0,100,0.00,,,0.00,VWS V14.01,2013-04-14 05:35:00,
2013-04-14 00:40:00,51.4,51.4,29.27,ENE,78,7.0,9.0,100,0.00,,,0.00,VWS V14.01,2013-04-14 05:40:00,
2013-04-14 00:45:00,51.0,51.0,29.27,ENE,69,6.0,10.0,100,0.00,,,0.00,VWS V14.01,2013-04-14 05:45:00,
2013-04-14 00:50:00,50.7,50.7,29.26,ENE,76,7.0,10.0,100,0.00,,,0.00,VWS V14.01,2013-04-14 05:50:00,
2013-04-14 00:55:00,50.5,50.5,29.26,East,90,2.0,10.0,100,0.00,,,0.00,VWS V14.01,2013-04-14 05:55:00,
2013-04-14 01:00:00,50.4,50.4,29.26,ENE,76,2.0,10.0,100,0.00,,,0.00,VWS V14.01,2013-04-14 06:00:00,
2013-04-14 01:05:00,50.2,50.2,29.24,ENE,66,2.0,7.0,100,0.00,,,0.00,VWS V14.01,2013-04-14 06:05:00,
2013-04-14 01:10:00,49.9,49.9,29.24,East,93,3.0,7.0,100,0.00,,,0.00,VWS V14.01,2013-04-14 06:10:00,
2013-04-14 01:15:00,49.8,49.8,29.24,NE,55,2.0,11.0,100,0.00,,,0.00,VWS V14.01,2013-04-14 06:15:00,
2013-04-14 01:20:00,49.4,49.4,29.22,East,80,6.0,10.0,100,0.00,,,0.00,VWS V14.01,2013-04-14 06:20:00,
2013-04-14 01:25:00,48.8,48.8,29.22,ENE,69,6.0,11.0,100,0.00,,,0.00,VWS V14.01,2013-04-14 06:25:00,
2013-04-14 01:30:00,48.3,48.3,29.22,ENE,71,5.0,11.0,100,0.00,,,0.00,VWS V14.01,2013-04-14 06:30:00,
2013-04-14 01:35:00,48.0,48.0,29.22,ENE,75,2.0,7.0,100,0.00,,,0.00,VWS V14.01,2013-04-14 06:35:00,
2013-04-14 01:40:00,47.9,47.9,29.22,ENE,62,4.0,12.0,100,0.00,,,0.00,VWS V14.01,2013-04-14 06:40:00,
2013-04-14 01:45:00,47.7,47.7,29.22,ENE,69,5.0,13.0,100,0.00,,,0.00,VWS V14.01,2013-04-14 06:45:00,
2013-04-14 01:50:00,47.6,47.6,29.21,ENE,69,5.0,7.0,100,0.00,,,0.00,VWS V14.01,2013-04-14 06:50:00,
2013-04-14 01:55:00,47.3,47.3,29.21,East,90,4.0,8.0,100,0.00,,,0.00,VWS V14.01,2013-04-14 06:55:00,
2013-04-14 02:00:00,47.1,47.1,29.21,ENE,65,5.0,8.0,100,0.00,,,0.00,VWS V14.01,2013-04-14 07:00:00,
2013-04-14 02:05:00,47.0,47.0,29.20,ENE,61,5.0,8.0,100,0.00,,,0.00,VWS V14.01,2013-04-14 07:05:00,
2013-04-14 02:10:00,46.8,46.8,29.20,ENE,62,5.0,8.0,100,0.00,,,0.00,VWS V14.01,2013-04-14 07:10:00,
2013-04-14 02:15:00,47.0,47.0,29.20,ENE,65,7.0,8.0,100,0.00,,,0.00,VWS V14.01,2013-04-14 07:15:00,
2013-04-14 02:20:00,47.0,47.0,29.21,ENE,65,7.0,7.0,100,0.00,,,0.00,VWS V14.01,2013-04-14 07:20:00,
2013-04-14 02:25:00,47.1,47.1,29.21,ENE,61,3.0,10.0,100,0.00,,,0.00,VWS V14.01,2013-04-14 07:25:00,
2013-04-14 02:30:00,47.1,47.1,29.21,NE,54,3.0,10.0,100,0.00,,,0.00,VWS V14.01,2013-04-14 07:30:00,
2013-04-14 02:35:00,47.0,47.0,29.20,ENE,65,4.0,7.0,100,0.00,,,0.00,VWS V14.01,2013-04-14 07:35:00,
2013-04-14 02:40:00,47.0,47.0,29.20,ENE,61,5.0,7.0,100,0.00,,,0.00,VWS V14.01,2013-04-14 07:40:00,
2013-04-14 02:45:00,46.8,46.8,29.20,ENE,69,2.0,7.0,100,0.00,,,0.00,VWS V14.01,2013-04-14 07:45:00,
2013-04-14 02:50:00,46.8,46.8,29.20,ENE,78,5.0,7.0,100,0.00,,,0.00,VWS V14.01,2013-04-14 07:50:00,
2013-04-14 02:55:00,46.7,46.7,29.20,ENE,75,6.0,7.0,100,0.00,,,0.00,VWS V14.01,2013-04-14 07:55:00,
2013-04-14 03:00:00,46.7,46.7,29.20,ENE,65,3.0,10.0,100,0.00,,,0.00,VWS V14.01,2013-04-14 08:00:00,
2013-04-14 03:05:00,46.5,46.5,29.18,East,86,2.0,8.0,100,0.00,,,0.00,VWS V14.01,2013-04-14 08:05:00,
2013-04-14 03:10:00,46.4,46.4,29.18,ENE,76,4.0,8.0,100,0.00,,,0.00,VWS V14.01,2013-04-14 08:10:00,
2013-04-14 03:15:00,46.4,46.4,29.18,ENE,72,4.0,8.0,100,0.00,,,0.00,VWS V14.01,2013-04-14 08:15:00,
2013-04-14 03:20:00,46.1,46.1,29.16,East,79,2.0,6.0,100,0.00,,,0.00,VWS V14.01,2013-04-14 08:20:00,
2013-04-14 03:25:00,46.1,46.1,29.16,ENE,62,3.0,9.0,100,0.00,,,0.00,VWS V14.01,2013-04-14 08:25:00,
2013-04-14 03:30:00,46.0,46.0,29.16,ENE,65,2.0,9.0,100,0.00,,,0.00,VWS V14.01,2013-04-14 08:30:00,
2013-04-14 03:35:00,45.8,45.8,29.15,ENE,65,0.0,8.0,100,0.00,,,0.00,VWS V14.01,2013-04-14 08:35:00,
2013-04-14 03:40:00,45.7,45.7,29.15,ENE,66,5.0,8.0,100,0.00,,,0.00,VWS V14.01,2013-04-14 08:40:00,
2013-04-14 03:45:00,45.7,45.7,29.15,ENE,78,2.0,8.0,100,0.00,,,0.00,VWS V14.01,2013-04-14 08:45:00,
2013-04-14 03:50:00,45.5,45.5,29.14,ENE,68,4.0,7.0,100,0.00,,,0.00,VWS V14.01,2013-04-14 08:50:00,
2013-04-14 03:55:00,45.5,45.5,29.14,ENE,68,3.0,7.0,100,0.00,,,0.00,VWS V14.01,2013-04-14 08:55:00,
2013-04-14 04:00:00,45.5,45.5,29.14,ENE,76,2.0,7.0,100,0.00,,,0.00,VWS V14.01,2013-04-14 09:00:00,
2013-04-14 04:05:00,45.5,45.5,29.15,NE,55,4.0,7.0,100,0.00,,,0.00,VWS V14.01,2013-04-14 09:05:00,
2013-04-14 04:10:00,45.5,45.5,29.15,ENE,71,4.0,7.0,100,0.00,,,0.00,VWS V14.01,2013-04-14 09:10:00,
2013-04-14 04:15:00,45.4,45.4,29.15,NE,55,5.0,7.0,100,0.00,,,0.00,VWS V14.01,2013-04-14 09:15:00,
2013-04-14 04:20:00,45.2,45.2,29.16,NE,44,5.0,7.0,100,0.00,,,0.00,VWS V14.01,2013-04-14 09:20:00,
2013-04-14 04:25:00,45.1,45.1,29.16,NE,45,5.0,7.0,100,0.00,,,0.00,VWS V14.01,2013-04-14 09:25:00,
2013-04-14 04:30:00,44.8,44.8,29.16,NE,47,5.0,7.0,100,0.00,,,0.00,VWS V14.01,2013-04-14 09:30:00,
2013-04-14 04:35:00,44.6,44.6,29.14,NE,55,6.0,10.0,100,0.00,,,0.00,VWS V14.01,2013-04-14 09:35:00,
2013-04-14 04:40:00,44.6,44.6,29.14,NE,47,5.0,10.0,100,0.00,,,0.00,VWS V14.01,2013-04-14 09:40:00,
2013-04-14 04:45:00,44.5,44.5,29.14,NE,44,5.0,10.0,100,0.00,,,0.00,VWS V14.01,2013-04-14 09:45:00,
2013-04-14 04:50:00,44.3,44.3,29.14,NE,47,4.0,7.0,100,0.00,,,0.00,VWS V14.01,2013-04-14 09:50:00,
2013-04-14 04:55:00,44.3,44.3,29.14,NE,41,4.0,7.0,100,0.00,,,0.00,VWS V14.01,2013-04-14 09:55:00,
2013-04-14 05:00:00,44.5,44.5,29.14,NE,40,3.0,7.0,100,0.00,,,0.00,VWS V14.01,2013-04-14 10:00:00,
2013-04-14 05:05:00,44.3,44.3,29.14,NE,47,5.0,7.0,100,0.00,,,0.00,VWS V14.01,2013-04-14 10:05:00,
2013-04-14 05:10:00,44.3,44.3,29.14,ENE,58,5.0,7.0,100,0.00,,,0.00,VWS V14.01,2013-04-14 10:10:00,
2013-04-14 05:15:00,44.5,44.5,29.14,NNE,32,5.0,7.0,100,0.00,,,0.00,VWS V14.01,2013-04-14 10:15:00,
2013-04-14 05:20:00,44.3,44.3,29.15,NE,40,6.0,11.0,100,0.00,,,0.00,VWS V14.01,2013-04-14 10:20:00,
2013-04-14 05:25:00,44.3,44.3,29.15,NE,40,5.0,11.0,100,0.00,,,0.00,VWS V14.01,2013-04-14 10:25:00,
2013-04-14 05:30:00,44.2,44.2,29.15,NNE,24,4.0,11.0,100,0.00,,,0.00,VWS V14.01,2013-04-14 10:30:00,
2013-04-14 05:35:00,44.2,44.2,29.16,North,352,8.0,10.0,100,0.00,,,0.00,VWS V14.01,2013-04-14 10:35:00,
2013-04-14 05:40:00,44.1,44.1,29.16,North,350,6.0,10.0,100,0.00,,,0.00,VWS V14.01,2013-04-14 10:40:00,
2013-04-14 05:45:00,43.8,43.8,29.16,NW,323,11.0,18.0,100,0.00,,,0.00,VWS V14.01,2013-04-14 10:45:00,
2013-04-14 05:50:00,43.9,43.9,29.18,NNW,330,2.0,16.0,100,0.00,,,0.00,VWS V14.01,2013-04-14 10:50:00,
2013-04-14 05:55:00,43.9,43.9,29.18,NW,322,6.0,16.0,100,0.00,,,0.00,VWS V14.01,2013-04-14 10:55:00,
2013-04-14 06:00:00,44.2,44.2,29.18,North,350,8.0,16.0,100,0.00,,,0.00,VWS V14.01,2013-04-14 11:00:00,
2013-04-14 06:05:00,44.5,44.5,29.18,NNW,342,7.0,18.0,100,0.00,,,0.00,VWS V14.01,2013-04-14 11:05:00,
2013-04-14 06:10:00,44.6,44.6,29.18,North,359,10.0,26.0,100,0.00,,,0.00,VWS V14.01,2013-04-14 11:10:00,
2013-04-14 06:15:00,44.8,44.8,29.18,North,359,10.0,26.0,100,0.00,,,0.00,VWS V14.01,2013-04-14 11:15:00,
2013-04-14 06:20:00,44.8,44.8,29.18,North,349,13.0,17.0,100,0.00,,,0.00,VWS V14.01,2013-04-14 11:20:00,
2013-04-14 06:25:00,44.9,44.9,29.18,North,356,7.0,17.0,100,0.00,,,0.00,VWS V14.01,2013-04-14 11:25:00,
2013-04-14 06:30:00,44.9,44.9,29.18,NW,325,5.0,17.0,100,0.00,,,0.00,VWS V14.01,2013-04-14 11:30:00,
2013-04-14 06:35:00,45.1,45.1,29.21,North,352,7.0,11.0,100,0.00,,,0.00,VWS V14.01,2013-04-14 11:35:00,
2013-04-14 06:40:00,45.4,45.4,29.21,North,349,14.0,18.0,100,0.00,,,0.00,VWS V14.01,2013-04-14 11:40:00,
2013-04-14 06:45:00,45.7,45.7,29.21,North,354,12.0,20.0,100,0.00,,,0.00,VWS V14.01,2013-04-14 11:45:00,
2013-04-14 06:50:00,45.7,45.7,29.19,North,354,14.0,18.0,100,0.00,,,0.00,VWS V14.01,2013-04-14 11:50:00,
2013-04-14 06:55:00,45.8,45.8,29.19,North,359,14.0,18.0,100,0.00,,,0.00,VWS V14.01,2013-04-14 11:55:00,
2013-04-14 07:00:00,45.8,45.8,29.19,NNW,342,4.0,18.0,100,0.00,,,0.00,VWS V14.01,2013-04-14 12:00:00,
2013-04-14 07:05:00,45.7,45.7,29.21,North,354,8.0,13.0,100,0.00,,,0.00,VWS V14.01,2013-04-14 12:05:00,
2013-04-14 07:10:00,45.8,45.8,29.21,North,350,7.0,15.0,100,0.00,,,0.00,VWS V14.01,2013-04-14 12:10:00,
2013-04-14 07:15:00,46.0,46.0,29.21,North,359,12.0,16.0,100,0.00,,,0.00,VWS V14.01,2013-04-14 12:15:00,
2013-04-14 07:20:00,46.0,46.0,29.20,North,1,6.0,14.0,100,0.00,,,0.00,VWS V14.01,2013-04-14 12:20:00,
2013-04-14 07:25:00,46.0,46.0,29.20,NNE,18,5.0,14.0,100,0.00,,,0.00,VWS V14.01,2013-04-14 12:25:00,
2013-04-14 07:30:00,45.8,45.8,29.20,NNE,30,6.0,14.0,100,0.00,,,0.00,VWS V14.01,2013-04-14 12:30:00,
2013-04-14 07:35:00,45.7,45.7,29.19,North,7,6.0,8.0,100,0.00,,,0.00,VWS V14.01,2013-04-14 12:35:00,
2013-04-14 07:40:00,45.7,45.7,29.19,NNE,27,7.0,9.0,100,0.00,,,0.00,VWS V14.01,2013-04-14 12:40:00,
2013-04-14 07:45:00,45.7,45.7,29.19,NNE,27,3.0,9.0,100,0.00,,,0.00,VWS V14.01,2013-04-14 12:45:00,
2013-04-14 07:50:00,45.7,45.7,29.20,NNW,344,2.0,9.0,100,0.00,,,0.00,VWS V14.01,2013-04-14 12:50:00,
2013-04-14 07:55:00,45.5,45.5,29.20,NNW,347,1.0,9.0,100,0.00,,,0.00,VWS V14.01,2013-04-14 12:55:00,
2013-04-14 08:00:00,45.5,45.5,29.20,NNW,347,3.0,9.0,100,0.00,,,0.00,VWS V14.01,2013-04-14 13:00:00,
2013-04-14 08:05:00,45.4,45.4,29.23,NW,311,3.0,5.0,100,0.00,,,0.00,VWS V14.01,2013-04-14 13:05:00,
2013-04-14 08:10:00,45.4,45.4,29.23,NW,311,4.0,5.0,100,0.00,,,0.00,VWS V14.01,2013-04-14 13:10:00,
2013-04-14 08:15:00,45.4,45.4,29.23,NW,311,3.0,6.0,100,0.00,,,0.00,VWS V14.01,2013-04-14 13:15:00,
2013-04-14 08:20:00,45.5,45.5,29.26,WNW,294,10.0,10.0,100,0.00,,,0.00,VWS V14.01,2013-04-14 13:20:00,
2013-04-14 08:25:00,45.7,45.7,29.26,WNW,294,0.0,10.0,100,0.00,,,0.00,VWS V14.01,2013-04-14 13:25:00,
2013-04-14 08:30:00,46.0,46.0,29.26,NNW,344,4.0,10.0,100,0.00,,,0.00,VWS V14.01,2013-04-14 13:30:00,
2013-04-14 08:35:00,46.1,46.1,29.26,NNW,344,3.0,4.0,100,0.00,,,0.00,VWS V14.01,2013-04-14 13:35:00,
2013-04-14 08:40:00,46.2,46.2,29.26,NNW,330,2.0,5.0,100,0.00,,,0.00,VWS V14.01,2013-04-14 13:40:00,
2013-04-14 08:45:00,46.5,46.5,29.26,NNW,329,5.0,5.0,100,0.00,,,0.00,VWS V14.01,2013-04-14 13:45:00,
2013-04-14 08:50:00,46.8,46.8,29.28,NW,322,2.0,4.0,100,0.00,,,0.00,VWS V14.01,2013-04-14 13:50:00,
2013-04-14 08:55:00,47.1,47.1,29.28,NW,318,4.0,6.0,100,0.00,,,0.00,VWS V14.01,2013-04-14 13:55:00,
2013-04-14 09:00:00,47.4,47.4,29.28,WNW,294,5.0,8.0,100,0.00,,,0.00,VWS V14.01,2013-04-14 14:00:00,
2013-04-14 09:05:00,47.9,47.1,29.29,West,281,7.0,7.0,97,0.00,,,0.00,VWS V14.01,2013-04-14 14:05:00,
2013-04-14 09:10:00,48.2,47.4,29.29,WNW,298,2.0,7.0,97,0.00,,,0.00,VWS V14.01,2013-04-14 14:10:00,
2013-04-14 09:15:00,48.3,46.4,29.29,WNW,296,7.0,8.0,93,0.00,,,0.00,VWS V14.01,2013-04-14 14:15:00,
2013-04-14 09:20:00,48.8,44.8,29.29,NW,312,5.0,5.0,86,0.00,,,0.00,VWS V14.01,2013-04-14 14:20:00,
2013-04-14 09:25:00,49.1,45.1,29.29,NW,322,4.0,8.0,86,0.00,,,0.00,VWS V14.01,2013-04-14 14:25:00,
2013-04-14 09:30:00,49.4,44.1,29.29,NW,306,7.0,13.0,82,0.00,,,0.00,VWS V14.01,2013-04-14 14:30:00,
2013-04-14 09:35:00,49.5,41.9,29.29,NNW,337,5.0,12.0,75,0.00,,,0.00,VWS V14.01,2013-04-14 14:35:00,
2013-04-14 09:40:00,49.5,42.9,29.29,WNW,296,8.0,12.0,78,0.00,,,0.00,VWS V14.01,2013-04-14 14:40:00,
2013-04-14 09:45:00,49.4,41.5,29.29,NW,311,2.0,13.0,74,0.00,,,0.00,VWS V14.01,2013-04-14 14:45:00,
2013-04-14 09:50:00,49.4,41.1,29.29,WNW,289,12.0,13.0,73,0.00,,,0.00,VWS V14.01,2013-04-14 14:50:00,
2013-04-14 09:55:00,49.4,40.8,29.29,NW,306,10.0,17.0,72,0.00,,,0.00,VWS V14.01,2013-04-14 14:55:00,
2013-04-14 10:00:00,49.4,38.9,29.29,WNW,292,10.0,20.0,67,0.00,,,0.00,VWS V14.01,2013-04-14 15:00:00,
2013-04-14 10:05:00,49.6,38.7,29.31,NW,316,5.0,14.0,66,0.00,,,0.00,VWS V14.01,2013-04-14 15:05:00,
2013-04-14 10:10:00,49.9,37.0,29.31,North,350,5.0,19.0,61,0.00,,,0.00,VWS V14.01,2013-04-14 15:10:00,
2013-04-14 10:15:00,50.2,36.9,29.31,North,359,5.0,19.0,60,0.00,,,0.00,VWS V14.01,2013-04-14 15:15:00,
2013-04-14 10:20:00,50.7,36.0,29.31,NW,318,12.0,17.0,57,0.00,,,0.00,VWS V14.01,2013-04-14 15:20:00,
2013-04-14 10:25:00,50.8,36.6,29.31,WNW,302,14.0,21.0,58,0.00,,,0.00,VWS V14.01,2013-04-14 15:25:00,
2013-04-14 10:30:00,50.5,37.6,29.31,NW,315,6.0,21.0,61,0.00,,,0.00,VWS V14.01,2013-04-14 15:30:00,
2013-04-14 10:35:00,50.2,36.0,29.33,WNW,288,8.0,12.0,58,0.00,,,0.00,VWS V14.01,2013-04-14 15:35:00,
2013-04-14 10:40:00,50.8,34.8,29.33,NW,322,7.0,13.0,54,0.00,,,0.00,VWS V14.01,2013-04-14 15:40:00,
2013-04-14 10:45:00,51.1,35.5,29.33,NW,318,5.0,14.0,55,0.00,,,0.00,VWS V14.01,2013-04-14 15:45:00,
2013-04-14 10:50:00,50.5,36.3,29.33,WNW,301,7.0,17.0,58,0.00,,,0.00,VWS V14.01,2013-04-14 15:50:00,
2013-04-14 10:55:00,50.2,34.7,29.33,WNW,285,7.0,17.0,55,0.00,,,0.00,VWS V14.01,2013-04-14 15:55:00,
2013-04-14 11:00:00,49.9,34.4,29.33,West,274,12.0,17.0,55,0.00,,,0.00,VWS V14.01,2013-04-14 16:00:00,
2013-04-14 11:05:00,49.8,35.2,29.36,West,274,11.0,11.0,57,0.00,,,0.00,VWS V14.01,2013-04-14 16:05:00,
2013-04-14 11:10:00,49.9,35.7,29.36,WNW,296,9.0,14.0,58,0.00,,,0.00,VWS V14.01,2013-04-14 16:10:00,
2013-04-14 11:15:00,50.4,35.3,29.36,NW,308,5.0,14.0,56,0.00,,,0.00,VWS V14.01,2013-04-14 16:15:00,
2013-04-14 11:20:00,50.4,35.8,29.36,WNW,302,6.0,12.0,57,0.00,,,0.00,VWS V14.01,2013-04-14 16:20:00,
2013-04-14 11:25:00,49.8,32.9,29.36,NW,304,10.0,17.0,52,0.00,,,0.00,VWS V14.01,2013-04-14 16:25:00,
2013-04-14 11:30:00,49.5,32.6,29.36,West,280,12.0,17.0,52,0.00,,,0.00,VWS V14.01,2013-04-14 16:30:00,
2013-04-14 11:35:00,49.5,34.0,29.39,NW,308,6.0,13.0,55,0.00,,,0.00,VWS V14.01,2013-04-14 16:35:00,
2013-04-14 11:40:00,49.6,35.0,29.39,NW,305,6.0,13.0,57,0.00,,,0.00,VWS V14.01,2013-04-14 16:40:00,
2013-04-14 11:45:00,49.8,33.8,29.39,NW,308,13.0,16.0,54,0.00,,,0.00,VWS V14.01,2013-04-14 16:45:00,
2013-04-14 11:50:00,49.6,34.6,29.39,WNW,295,7.0,12.0,56,0.00,,,0.00,VWS V14.01,2013-04-14 16:50:00,
2013-04-14 11:55:00,49.8,33.8,29.39,NW,305,7.0,14.0,54,0.00,,,0.00,VWS V14.01,2013-04-14 16:55:00,
2013-04-14 12:00:00,49.8,32.4,29.39,WNW,296,6.0,17.0,51,0.00,,,0.00,VWS V14.01,2013-04-14 17:00:00,
2013-04-14 12:05:00,50.2,34.2,29.39,WNW,296,5.0,14.0,54,0.00,,,0.00,VWS V14.01,2013-04-14 17:05:00,
2013-04-14 12:10:00,50.4,32.0,29.39,West,281,13.0,14.0,49,0.00,,,0.00,VWS V14.01,2013-04-14 17:10:00,
2013-04-14 12:15:00,51.1,32.1,29.39,WNW,282,9.0,19.0,48,0.00,,,0.00,VWS V14.01,2013-04-14 17:15:00,
2013-04-14 12:20:00,51.9,32.8,29.39,WNW,288,12.0,14.0,48,0.00,,,0.00,VWS V14.01,2013-04-14 17:20:00,
2013-04-14 12:25:00,51.3,28.4,29.39,WNW,294,7.0,21.0,41,0.00,,,0.00,VWS V14.01,2013-04-14 17:25:00,
2013-04-14 12:30:00,51.4,29.1,29.39,WNW,282,11.0,21.0,42,0.00,,,0.00,VWS V14.01,2013-04-14 17:30:00,
2013-04-14 12:35:00,52.3,26.2,29.39,WNW,284,7.0,17.0,36,0.00,,,0.00,VWS V14.01,2013-04-14 17:35:00,
2013-04-14 12:40:00,53.3,27.7,29.39,West,271,19.0,21.0,37,0.00,,,0.00,VWS V14.01,2013-04-14 17:40:00,
2013-04-14 12:45:00,53.3,27.7,29.39,West,274,8.0,21.0,37,0.00,,,0.00,VWS V14.01,2013-04-14 17:45:00,
2013-04-14 12:50:00,53.8,26.1,29.39,West,274,10.0,19.0,34,0.00,,,0.00,VWS V14.01,2013-04-14 17:50:00,
2013-04-14 12:55:00,53.5,25.1,29.39,West,275,10.0,19.0,33,0.00,,,0.00,VWS V14.01,2013-04-14 17:55:00,
2013-04-14 13:00:00,53.6,26.6,29.39,West,281,11.0,21.0,35,0.00,,,0.00,VWS V14.01,2013-04-14 18:00:00,
2013-04-14 13:05:00,54.1,27.1,29.39,West,277,10.0,16.0,35,0.00,,,0.00,VWS V14.01,2013-04-14 18:05:00,
2013-04-14 13:10:00,53.9,28.2,29.39,WNW,287,15.0,21.0,37,0.00,,,0.00,VWS V14.01,2013-04-14 18:10:00,
2013-04-14 13:15:00,54.1,27.1,29.39,WNW,284,19.0,22.0,35,0.00,,,0.00,VWS V14.01,2013-04-14 18:15:00,
2013-04-14 13:20:00,54.1,27.1,29.40,NW,311,11.0,16.0,35,0.00,,,0.00,VWS V14.01,2013-04-14 18:20:00,
2013-04-14 13:25:00,54.5,29.4,29.40,WNW,292,10.0,16.0,38,0.00,,,0.00,VWS V14.01,2013-04-14 18:25:00,
2013-04-14 13:30:00,54.5,25.3,29.40,WNW,291,12.0,21.0,32,0.00,,,0.00,VWS V14.01,2013-04-14 18:30:00,
2013-04-14 13:35:00,53.8,24.6,29.39,WNW,289,12.0,20.0,32,0.00,,,0.00,VWS V14.01,2013-04-14 18:35:00,
2013-04-14 13:40:00,53.3,27.7,29.39,WNW,282,9.0,21.0,37,0.00,,,0.00,VWS V14.01,2013-04-14 18:40:00,
2013-04-14 13:45:00,53.8,27.5,29.39,West,268,14.0,24.0,36,0.00,,,0.00,VWS V14.01,2013-04-14 18:45:00,
2013-04-14 13:50:00,53.3,26.4,29.40,West,265,14.0,21.0,35,0.00,,,0.00,VWS V14.01,2013-04-14 18:50:00,
2013-04-14 13:55:00,53.3,27.7,29.40,NW,304,10.0,21.0,37,0.00,,,0.00,VWS V14.01,2013-04-14 18:55:00,
2013-04-14 14:00:00,53.5,28.5,29.40,WNW,284,17.0,21.0,38,0.00,,,0.00,VWS V14.01,2013-04-14 19:00:00,
2013-04-14 14:05:00,53.6,28.0,29.41,WNW,295,12.0,17.0,37,0.00,,,0.00,VWS V14.01,2013-04-14 19:05:00,
2013-04-14 14:10:00,52.9,26.0,29.41,WNW,301,11.0,21.0,35,0.00,,,0.00,VWS V14.01,2013-04-14 19:10:00,
2013-04-14 14:15:00,52.9,29.2,29.41,WNW,296,11.0,21.0,40,0.00,,,0.00,VWS V14.01,2013-04-14 19:15:00,
2013-04-14 14:20:00,52.8,26.6,29.41,WNW,285,16.0,20.0,36,0.00,,,0.00,VWS V14.01,2013-04-14 19:20:00,
2013-04-14 14:25:00,53.3,25.7,29.41,West,281,12.0,20.0,34,0.00,,,0.00,VWS V14.01,2013-04-14 19:25:00,
2013-04-14 14:30:00,53.5,25.1,29.41,WNW,294,21.0,21.0,33,0.00,,,0.00,VWS V14.01,2013-04-14 19:30:00,
2013-04-14 14:35:00,53.9,24.7,29.42,WNW,289,15.0,20.0,32,0.00,,,0.00,VWS V14.01,2013-04-14 19:35:00,
2013-04-14 14:40:00,53.5,22.9,29.42,WNW,295,15.0,22.0,30,0.00,,,0.00,VWS V14.01,2013-04-14 19:40:00,
2013-04-14 14:45:00,53.9,22.4,29.42,NW,319,7.0,22.0,29,0.00,,,0.00,VWS V14.01,2013-04-14 19:45:00,
2013-04-14 14:50:00,54.1,26.4,29.43,WNW,298,10.0,14.0,34,0.00,,,0.00,VWS V14.01,2013-04-14 19:50:00,
2013-04-14 14:55:00,54.5,24.5,29.43,NNW,335,10.0,17.0,31,0.00,,,0.00,VWS V14.01,2013-04-14 19:55:00,
2013-04-14 15:00:00,54.1,27.8,29.43,WNW,287,17.0,17.0,36,0.00,,,0.00,VWS V14.01,2013-04-14 20:00:00,
2013-04-14 15:05:00,53.6,23.7,29.43,West,275,20.0,21.0,31,0.00,,,0.00,VWS V14.01,2013-04-14 20:05:00,
2013-04-14 15:10:00,53.6,25.9,29.43,NW,306,18.0,21.0,34,0.00,,,0.00,VWS V14.01,2013-04-14 20:10:00,
2013-04-14 15:15:00,53.9,24.0,29.43,WNW,296,11.0,22.0,31,0.00,,,0.00,VWS V14.01,2013-04-14 20:15:00,
2013-04-14 15:20:00,53.8,24.6,29.44,NW,326,10.0,15.0,32,0.00,,,0.00,VWS V14.01,2013-04-14 20:20:00,
2013-04-14 15:25:00,53.8,23.1,29.44,WNW,294,11.0,17.0,30,0.00,,,0.00,VWS V14.01,2013-04-14 20:25:00,
2013-04-14 15:30:00,53.9,21.6,29.44,WNW,291,12.0,19.0,28,0.00,,,0.00,VWS V14.01,2013-04-14 20:30:00,
2013-04-14 15:35:00,53.6,22.1,29.44,WNW,287,12.0,17.0,29,0.00,,,0.00,VWS V14.01,2013-04-14 20:35:00,
2013-04-14 15:41:00,53.5,20.4,29.44,WNW,299,13.0,22.0,27,0.00,,,0.00,VWS V14.01,2013-04-14 20:41:00,
2013-04-14 15:45:00,54.1,25.6,29.43,North,352,8.0,22.0,33,0.00,,,0.00,VWS V14.01,2013-04-14 20:45:00,
2013-04-14 15:46:00,53.6,21.3,29.44,West,281,18.0,22.0,28,0.00,,,0.00,VWS V14.01,2013-04-14 20:46:00,
2013-04-14 15:51:00,53.3,23.5,29.45,WNW,298,7.0,21.0,31,0.00,,,0.00,VWS V14.01,2013-04-14 20:51:00,
2013-04-14 15:56:00,53.1,21.7,29.45,NW,306,12.0,21.0,29,0.00,,,0.00,VWS V14.01,2013-04-14 20:56:00,
2013-04-14 16:00:00,53.9,24.0,29.43,WNW,285,13.0,18.0,31,0.00,,,0.00,VWS V14.01,2013-04-14 21:00:00,
2013-04-14 16:01:00,52.6,23.6,29.45,WNW,298,15.0,21.0,32,0.00,,,0.00,VWS V14.01,2013-04-14 21:01:00,
2013-04-14 16:06:00,52.6,23.6,29.46,WNW,291,7.0,21.0,32,0.00,,,0.00,VWS V14.01,2013-04-14 21:06:00,
2013-04-14 16:11:00,52.2,21.7,29.46,NW,305,14.0,21.0,30,0.00,,,0.00,VWS V14.01,2013-04-14 21:11:00,
2013-04-14 16:15:00,53.8,23.9,29.44,NNW,344,5.0,22.0,31,0.00,,,0.00,VWS V14.01,2013-04-14 21:15:00,
2013-04-14 16:16:00,52.0,19.9,29.46,West,281,12.0,22.0,28,0.00,,,0.00,VWS V14.01,2013-04-14 21:16:00,
2013-04-14 16:21:00,52.5,21.2,29.47,NW,304,10.0,18.0,29,0.00,,,0.00,VWS V14.01,2013-04-14 21:21:00,
2013-04-14 16:26:00,52.5,21.2,29.47,WNW,301,17.0,19.0,29,0.00,,,0.00,VWS V14.01,2013-04-14 21:26:00,
2013-04-14 16:30:00,53.6,22.1,29.44,WNW,288,16.0,19.0,29,0.00,,,0.00,VWS V14.01,2013-04-14 21:30:00,
2013-04-14 16:31:00,52.2,20.9,29.47,WNW,284,20.0,22.0,29,0.00,,,0.00,VWS V14.01,2013-04-14 21:31:00,
2013-04-14 16:36:00,51.7,18.8,29.48,WNW,295,19.0,26.0,27,0.00,,,0.00,VWS V14.01,2013-04-14 21:36:00,
2013-04-14 16:41:00,52.2,20.1,29.48,West,280,17.0,26.0,28,0.00,,,0.00,VWS V14.01,2013-04-14 21:41:00,
2013-04-14 16:45:00,53.3,22.7,29.45,NW,308,19.0,22.0,30,0.00,,,0.00,VWS V14.01,2013-04-14 21:45:00,
2013-04-14 16:46:00,52.8,22.2,29.48,WNW,298,13.0,26.0,30,0.00,,,0.00,VWS V14.01,2013-04-14 21:46:00,
2013-04-14 16:51:00,52.3,20.2,29.49,WNW,287,14.0,26.0,28,0.00,,,0.00,VWS V14.01,2013-04-14 21:51:00,
2013-04-14 16:56:00,52.5,20.4,29.49,NW,304,17.0,26.0,28,0.00,,,0.00,VWS V14.01,2013-04-14 21:56:00,
2013-04-14 17:00:00,52.6,23.6,29.46,WNW,291,16.0,21.0,32,0.00,,,0.00,VWS V14.01,2013-04-14 22:00:00,
2013-04-14 17:01:00,51.7,17.9,29.50,WSW,246,11.0,26.0,26,0.00,,,0.00,VWS V14.01,2013-04-14 22:01:00,
2013-04-14 17:06:00,51.7,18.8,29.50,WSW,248,10.0,24.0,27,0.00,,,0.00,VWS V14.01,2013-04-14 22:06:00,
2013-04-14 17:11:00,51.9,18.1,29.50,West,272,18.0,24.0,26,0.00,,,0.00,VWS V14.01,2013-04-14 22:11:00,
2013-04-14 17:15:00,52.2,20.9,29.47,WNW,288,14.0,22.0,29,0.00,,,0.00,VWS V14.01,2013-04-14 22:15:00,
2013-04-14 17:16:00,52.2,20.1,29.50,West,280,21.0,25.0,28,0.00,,,0.00,VWS V14.01,2013-04-14 22:16:00,
2013-04-14 17:22:00,52.6,21.3,29.50,NW,309,12.0,19.0,29,0.00,,,0.00,VWS V14.01,2013-04-14 22:22:00,
2013-04-14 17:27:00,51.9,18.1,29.50,WNW,282,12.0,22.0,26,0.00,,,0.00,VWS V14.01,2013-04-14 22:27:00,
2013-04-14 17:30:00,52.2,20.1,29.48,WNW,301,22.0,28.0,28,0.00,,,0.00,VWS V14.01,2013-04-14 22:30:00,
2013-04-14 17:32:00,51.7,19.7,29.51,WNW,292,15.0,22.0,28,0.00,,,0.00,VWS V14.01,2013-04-14 22:32:00,
2013-04-14 17:37:00,52.0,19.9,29.51,NW,311,5.0,15.0,28,0.00,,,0.00,VWS V14.01,2013-04-14 22:37:00,
2013-04-14 17:42:00,51.7,20.5,29.51,WNW,302,12.0,17.0,29,0.00,,,0.00,VWS V14.01,2013-04-14 22:42:00,
2013-04-14 17:45:00,52.8,22.2,29.49,WNW,288,11.0,26.0,30,0.00,,,0.00,VWS V14.01,2013-04-14 22:45:00,
2013-04-14 17:47:00,51.6,17.0,29.52,West,281,10.0,18.0,25,0.00,,,0.00,VWS V14.01,2013-04-14 22:47:00,
2013-04-14 17:52:00,51.7,17.0,29.52,WNW,291,11.0,18.0,25,0.00,,,0.00,VWS V14.01,2013-04-14 22:52:00,
2013-04-14 17:57:00,51.4,19.4,29.52,WNW,287,12.0,19.0,28,0.00,,,0.00,VWS V14.01,2013-04-14 22:57:00,
2013-04-14 18:00:00,51.4,17.7,29.50,NW,305,24.0,26.0,26,0.00,,,0.00,VWS V14.01,2013-04-14 23:00:00,
2013-04-14 18:02:00,51.0,16.4,29.53,WNW,301,12.0,19.0,25,0.00,,,0.00,VWS V14.01,2013-04-14 23:02:00,
2013-04-14 18:07:00,51.0,15.5,29.53,NW,320,16.0,19.0,24,0.00,,,0.00,VWS V14.01,2013-04-14 23:07:00,
2013-04-14 18:12:00,51.1,16.5,29.53,WNW,292,12.0,20.0,25,0.00,,,0.00,VWS V14.01,2013-04-14 23:12:00,
2013-04-14 18:15:00,52.0,19.9,29.50,West,280,19.0,25.0,28,0.00,,,0.00,VWS V14.01,2013-04-14 23:15:00,
2013-04-14 18:17:00,51.1,14.6,29.53,WNW,298,13.0,21.0,23,0.00,,,0.00,VWS V14.01,2013-04-14 23:17:00,
2013-04-14 18:22:00,51.3,15.8,29.53,WNW,292,10.0,19.0,24,0.00,,,0.00,VWS V14.01,2013-04-14 23:22:00,
2013-04-14 18:27:00,51.1,13.6,29.53,WNW,291,10.0,19.0,22,0.00,,,0.00,VWS V14.01,2013-04-14 23:27:00,
2013-04-14 18:30:00,51.6,19.6,29.51,NW,305,11.0,22.0,28,0.00,,,0.00,VWS V14.01,2013-04-14 23:30:00,
2013-04-14 18:32:00,50.7,16.2,29.54,NW,304,10.0,19.0,25,0.00,,,0.00,VWS V14.01,2013-04-14 23:32:00,
2013-04-14 18:37:00,50.5,14.1,29.54,WNW,295,11.0,18.0,23,0.00,,,0.00,VWS V14.01,2013-04-14 23:37:00,
2013-04-14 18:42:00,50.5,16.9,29.54,NW,318,6.0,19.0,26,0.00,,,0.00,VWS V14.01,2013-04-14 23:42:00,
2013-04-14 18:45:00,51.6,17.0,29.52,West,274,12.0,18.0,25,0.00,,,0.00,VWS V14.01,2013-04-14 23:45:00,
2013-04-14 18:47:00,50.2,18.4,29.56,NNW,342,7.0,8.0,28,0.00,,,0.00,VWS V14.01,2013-04-14 23:47:00,
2013-04-14 18:52:00,49.9,18.9,29.56,WNW,295,7.0,13.0,29,0.00,,,0.00,VWS V14.01,2013-04-14 23:52:00,
2013-04-14 18:57:00,49.8,17.2,29.56,NNW,335,8.0,14.0,27,0.00,,,0.00,VWS V14.01,2013-04-14 23:57:00,
2013-04-14 19:00:00,51.0,16.4,29.53,WNW,284,10.0,19.0,25,0.00,,,0.00,VWS V14.01,2013-04-15 00:00:00,
2013-04-14 19:02:00,49.6,17.0,29.57,West,278,11.0,11.0,27,0.00,,,0.00,VWS V14.01,2013-04-15 00:02:00,
2013-04-14 19:07:00,49.5,16.9,29.57,NW,315,5.0,13.0,27,0.00,,,0.00,VWS V14.01,2013-04-15 00:07:00,
2013-04-14 19:12:00,49.4,16.8,29.57,NW,311,6.0,13.0,27,0.00,,,0.00,VWS V14.01,2013-04-15 00:12:00,
2013-04-14 19:15:00,51.1,14.6,29.53,WNW,289,10.0,21.0,23,0.00,,,0.00,VWS V14.01,2013-04-15 00:15:00,
2013-04-14 19:17:00,49.2,17.5,29.57,NW,315,2.0,7.0,28,0.00,,,0.00,VWS V14.01,2013-04-15 00:17:00,
2013-04-14 19:22:00,49.1,20.5,29.57,NW,308,5.0,9.0,32,0.00,,,0.00,VWS V14.01,2013-04-15 00:22:00,
2013-04-14 19:27:00,49.1,17.4,29.57,WNW,301,10.0,12.0,28,0.00,,,0.00,VWS V14.01,2013-04-15 00:27:00,
2013-04-14 19:30:00,50.7,16.2,29.54,WNW,296,7.0,19.0,25,0.00,,,0.00,VWS V14.01,2013-04-15 00:30:00,
2013-04-14 19:32:00,48.9,17.2,29.58,WNW,288,10.0,11.0,28,0.00,,,0.00,VWS V14.01,2013-04-15 00:32:00,
2013-04-14 19:37:00,48.8,17.2,29.58,West,281,5.0,14.0,28,0.00,,,0.00,VWS V14.01,2013-04-15 00:37:00,
2013-04-14 19:42:00,48.5,15.2,29.58,WNW,294,8.0,14.0,26,0.00,,,0.00,VWS V14.01,2013-04-15 00:42:00,
2013-04-14 19:45:00,50.2,18.4,29.56,North,359,8.0,19.0,28,0.00,,,0.00,VWS V14.01,2013-04-15 00:45:00,
2013-04-14 19:48:00,48.2,15.8,29.59,WNW,292,7.0,10.0,27,0.00,,,0.00,VWS V14.01,2013-04-15 00:48:00,
2013-04-14 19:53:00,47.9,16.4,29.59,WNW,292,6.0,10.0,28,0.00,,,0.00,VWS V14.01,2013-04-15 00:53:00,
2013-04-14 19:58:00,47.6,15.3,29.59,NW,309,5.0,11.0,27,0.00,,,0.00,VWS V14.01,2013-04-15 00:58:00,
2013-04-14 20:00:00,49.6,17.0,29.57,WNW,292,7.0,14.0,27,0.00,,,0.00,VWS V14.01,2013-04-15 01:00:00,
2013-04-14 20:03:00,47.3,16.7,29.59,NW,311,5.0,6.0,29,0.00,,,0.00,VWS V14.01,2013-04-15 01:03:00,
2013-04-14 20:08:00,47.0,17.2,29.59,WNW,299,3.0,7.0,30,0.00,,,0.00,VWS V14.01,2013-04-15 01:08:00,
2013-04-14 20:13:00,46.7,18.4,29.59,WNW,298,3.0,7.0,32,0.00,,,0.00,VWS V14.01,2013-04-15 01:13:00,
2013-04-14 20:15:00,49.2,17.5,29.57,NW,315,7.0,13.0,28,0.00,,,0.00,VWS V14.01,2013-04-15 01:15:00,
2013-04-14 20:18:00,46.2,19.4,29.60,WNW,302,1.0,5.0,34,0.00,,,0.00,VWS V14.01,2013-04-15 01:18:00,
2013-04-14 20:23:00,46.0,20.6,29.60,WNW,302,0.0,5.0,36,0.00,,,0.00,VWS V14.01,2013-04-15 01:23:00,
2013-04-14 20:28:00,45.5,22.6,29.60,WNW,302,2.0,5.0,40,0.00,,,0.00,VWS V14.01,2013-04-15 01:28:00,
2013-04-14 20:30:00,48.9,17.2,29.58,WNW,284,10.0,12.0,28,0.00,,,0.00,VWS V14.01,2013-04-15 01:30:00,
2013-04-14 20:33:00,45.1,23.4,29.60,WNW,302,0.0,1.0,42,0.00,,,0.00,VWS V14.01,2013-04-15 01:33:00,
2013-04-14 20:38:00,44.5,22.9,29.60,WNW,302,0.0,4.0,42,0.00,,,0.00,VWS V14.01,2013-04-15 01:38:00,
2013-04-14 20:43:00,44.1,23.0,29.60,WNW,302,2.0,4.0,43,0.00,,,0.00,VWS V14.01,2013-04-15 01:43:00,
2013-04-14 20:45:00,48.3,16.7,29.59,WNW,299,10.0,19.0,28,0.00,,,0.00,VWS V14.01,2013-04-15 01:45:00,
2013-04-14 20:48:00,43.8,23.3,29.60,WNW,302,2.0,2.0,44,0.00,,,0.00,VWS V14.01,2013-04-15 01:48:00,
2013-04-14 20:53:00,43.3,23.9,29.60,WNW,302,2.0,3.0,46,0.00,,,0.00,VWS V14.01,2013-04-15 01:53:00,
2013-04-14 20:58:00,43.1,23.7,29.60,WNW,302,2.0,3.0,46,0.00,,,0.00,VWS V14.01,2013-04-15 01:58:00,
2013-04-14 21:00:00,47.4,17.5,29.59,NW,311,3.0,11.0,30,0.00,,,0.00,VWS V14.01,2013-04-15 02:00:00,
2013-04-14 21:03:00,43.1,23.2,29.62,WNW,302,2.0,2.0,45,0.00,,,0.00,VWS V14.01,2013-04-15 02:03:00,
2013-04-14 21:08:00,42.9,23.6,29.62,WNW,302,1.0,2.0,46,0.00,,,0.00,VWS V14.01,2013-04-15 02:08:00,
2013-04-14 21:13:00,42.8,23.5,29.62,WNW,302,0.0,2.0,46,0.00,,,0.00,VWS V14.01,2013-04-15 02:13:00,
2013-04-14 21:15:00,46.2,18.7,29.60,WNW,302,5.0,7.0,33,0.00,,,0.00,VWS V14.01,2013-04-15 02:15:00,
2013-04-14 21:18:00,42.6,23.8,29.62,WNW,302,0.0,0.0,47,0.00,,,0.00,VWS V14.01,2013-04-15 02:18:00,
2013-04-14 21:23:00,42.2,23.9,29.62,WNW,302,5.0,5.0,48,0.00,,,0.00,VWS V14.01,2013-04-15 02:23:00,
2013-04-14 21:28:00,41.6,24.4,29.62,WNW,302,5.0,5.0,50,0.00,,,0.00,VWS V14.01,2013-04-15 02:28:00,
2013-04-14 21:30:00,45.1,22.2,29.60,WNW,302,0.0,5.0,40,0.00,,,0.00,VWS V14.01,2013-04-15 02:30:00,
2013-04-14 21:33:00,40.5,22.4,29.63,WNW,302,3.0,5.0,48,0.00,,,0.00,VWS V14.01,2013-04-15 02:33:00,
2013-04-14 21:38:00,39.8,22.7,29.63,WNW,302,2.0,5.0,50,0.00,,,0.00,VWS V14.01,2013-04-15 02:38:00,
2013-04-14 21:43:00,39.6,21.0,29.63,WNW,302,3.0,5.0,47,0.00,,,0.00,VWS V14.01,2013-04-15 02:43:00,
2013-04-14 21:45:00,43.8,23.3,29.60,WNW,302,2.0,4.0,44,0.00,,,0.00,VWS V14.01,2013-04-15 02:45:00,
2013-04-14 21:48:00,39.6,21.5,29.64,WNW,302,2.0,2.0,48,0.00,,,0.00,VWS V14.01,2013-04-15 02:48:00,
2013-04-14 21:53:00,39.5,21.0,29.64,WNW,302,2.0,3.0,47,0.00,,,0.00,VWS V14.01,2013-04-15 02:53:00,
2013-04-14 21:58:00,39.5,21.5,29.64,WNW,302,2.0,3.0,48,0.00,,,0.00,VWS V14.01,2013-04-15 02:58:00,
2013-04-14 22:00:00,43.1,23.2,29.62,WNW,302,1.0,3.0,45,0.00,,,0.00,VWS V14.01,2013-04-15 03:00:00,
2013-04-14 22:03:00,39.2,21.7,29.65,WNW,302,3.0,4.0,49,0.00,,,0.00,VWS V14.01,2013-04-15 03:03:00,
2013-04-14 22:08:00,38.5,21.5,29.65,SW,219,3.0,6.0,50,0.00,,,0.00,VWS V14.01,2013-04-15 03:08:00,
2013-04-14 22:13:00,37.8,23.1,29.65,SW,219,5.0,6.0,55,0.00,,,0.00,VWS V14.01,2013-04-15 03:13:00,
2013-04-14 22:15:00,42.6,23.8,29.62,WNW,302,0.0,2.0,47,0.00,,,0.00,VWS V14.01,2013-04-15 03:15:00,
2013-04-14 22:18:00,37.3,21.8,29.66,SW,219,2.0,6.0,53,0.00,,,0.00,VWS V14.01,2013-04-15 03:18:00,
2013-04-14 22:23:00,37.3,21.8,29.66,SW,219,4.0,6.0,53,0.00,,,0.00,VWS V14.01,2013-04-15 03:23:00,
2013-04-14 22:28:00,37.5,21.9,29.66,SW,217,3.0,6.0,53,0.00,,,0.00,VWS V14.01,2013-04-15 03:28:00,
2013-04-14 22:30:00,40.6,23.4,29.63,WNW,302,4.0,5.0,50,0.00,,,0.00,VWS V14.01,2013-04-15 03:30:00,
2013-04-14 22:33:00,37.6,21.1,29.66,SW,217,3.0,3.0,51,0.00,,,0.00,VWS V14.01,2013-04-15 03:33:00,
2013-04-14 22:38:00,37.8,21.3,29.66,SW,217,5.0,5.0,51,0.00,,,0.00,VWS V14.01,2013-04-15 03:38:00,
2013-04-14 22:43:00,37.8,21.8,29.66,SW,217,5.0,7.0,52,0.00,,,0.00,VWS V14.01,2013-04-15 03:43:00,
2013-04-14 22:45:00,39.6,21.5,29.64,WNW,302,2.0,5.0,48,0.00,,,0.00,VWS V14.01,2013-04-15 03:45:00,
2013-04-14 22:48:00,38.0,22.0,29.66,SW,217,4.0,5.0,52,0.00,,,0.00,VWS V14.01,2013-04-15 03:48:00,
2013-04-14 22:53:00,38.2,22.1,29.66,SW,217,2.0,5.0,52,0.00,,,0.00,VWS V14.01,2013-04-15 03:53:00,
2013-04-14 22:58:00,38.3,21.8,29.66,SW,219,2.0,6.0,51,0.00,,,0.00,VWS V14.01,2013-04-15 03:58:00,
2013-04-14 23:00:00,38.3,22.7,29.66,SW,217,4.0,6.0,53,0.00,,,0.00,VWS V14.01,2013-04-15 04:00:00,
2013-04-14 23:05:00,38.5,21.5,29.68,SW,219,3.0,5.0,50,0.00,,,0.00,VWS V14.01,2013-04-15 04:05:00,
2013-04-14 23:10:00,38.9,20.9,29.68,SW,219,4.0,5.0,48,0.00,,,0.00,VWS V14.01,2013-04-15 04:10:00,
2013-04-14 23:15:00,39.3,21.3,29.68,SW,219,0.0,5.0,48,0.00,,,0.00,VWS V14.01,2013-04-15 04:15:00,
2013-04-14 23:20:00,39.3,21.3,29.66,SW,219,0.0,2.0,48,0.00,,,0.00,VWS V14.01,2013-04-15 04:20:00,
2013-04-14 23:25:00,39.6,20.0,29.66,WSW,246,4.0,8.0,45,0.00,,,0.00,VWS V14.01,2013-04-15 04:25:00,
2013-04-14 23:30:00,39.9,20.8,29.66,WSW,246,5.0,8.0,46,0.00,,,0.00,VWS V14.01,2013-04-15 04:30:00,
2013-04-14 23:35:00,39.8,21.7,29.66,WSW,248,2.0,6.0,48,0.00,,,0.00,VWS V14.01,2013-04-15 04:35:00,
2013-04-14 23:40:00,39.5,22.9,29.66,WSW,248,2.0,6.0,51,0.00,,,0.00,VWS V14.01,2013-04-15 04:40:00,
2013-04-14 23:45:00,39.1,22.5,29.66,WSW,248,0.0,6.0,51,0.00,,,0.00,VWS V14.01,2013-04-15 04:45:00,
2013-04-14 23:50:00,38.9,22.3,29.67,WSW,248,1.0,2.0,51,0.00,,,0.00,VWS V14.01,2013-04-15 04:50:00,
2013-04-14 23:55:00,38.6,23.0,29.67,WSW,248,2.0,3.0,53,0.00,,,0.00,VWS V14.01,2013-04-15 04:55:00,